• In France
  • List of Countries
  • For 7 days
  • Water Temperature
  • Satellite Maps
  • Weather Map
  • Weather Widgets
  • user-avatar
    Login

    Hourly Weather Plymouth

    Today, 18 October, Thursday

    Time Temperature Precipitation Wind Pressure Humidity
    00:00 +11°C° 0 mm 6 mps 766 mmHg 84%
    01:00 +11°C° 0 mm 6 mps 766 mmHg 85%
    02:00 +10°C° 0 mm 7 mps 766 mmHg 87%
    03:00 +10°C° 0 mm 7 mps 766 mmHg 88%
    04:00 +10°C° 0 mm 7 mps 766 mmHg 89%
    05:00 +9°C° 0 mm 6 mps 766 mmHg 90%
    06:00 +9°C° 0 mm 6 mps 767 mmHg 92%
    07:00 +9°C° 0 mm 6 mps 767 mmHg 90%
    08:00 +10°C° 0 mm 6 mps 767 mmHg 88%
    09:00 +11°C° 0 mm 6 mps 767 mmHg 87%
    10:00 +13°C° 0 mm 6 mps 767 mmHg 83%
    11:00 +14°C° 0 mm 6 mps 767 mmHg 80%
    12:00 +15°C° 0 mm 6 mps 767 mmHg 77%
    13:00 +15°C° 0 mm 6 mps 767 mmHg 77%
    14:00 +15°C° 0 mm 5 mps 767 mmHg 76%
    15:00 +15°C° 0 mm 5 mps 767 mmHg 76%
    16:00 +14°C° 0 mm 5 mps 767 mmHg 81%
    17:00 +13°C° 0 mm 4 mps 767 mmHg 85%
    18:00 +12°C° 0 mm 4 mps 767 mmHg 89%
    19:00 +12°C° 0 mm 4 mps 767 mmHg 90%
    20:00 +11°C° 0 mm 4 mps 767 mmHg 91%
    21:00 +11°C° 0 mm 4 mps 767 mmHg 91%
    22:00 +11°C° 0 mm 4 mps 767 mmHg 92%
    23:00 +11°C° 0 mm 3 mps 767 mmHg 92%

    Tomorrow, 19 October, Friday

    Time Temperature Precipitation Wind Pressure Humidity
    00:00 +10°C° 0 mm 3 mps 767 mmHg 92%
    01:00 +10°C° 0 mm 3 mps 767 mmHg 93%
    02:00 +10°C° 0 mm 3 mps 767 mmHg 93%
    03:00 +10°C° 0 mm 3 mps 767 mmHg 94%
    04:00 +10°C° 0 mm 3 mps 767 mmHg 94%
    05:00 +9°C° 0 mm 3 mps 767 mmHg 94%
    06:00 +9°C° 0 mm 3 mps 767 mmHg 94%
    07:00 +10°C° 0 mm 3 mps 767 mmHg 91%
    08:00 +11°C° 0 mm 3 mps 767 mmHg 88%
    09:00 +13°C° 0 mm 2 mps 768 mmHg 85%
    10:00 +14°C° 0 mm 2 mps 768 mmHg 81%
    11:00 +15°C° 0 mm 2 mps 768 mmHg 76%
    12:00 +17°C° 0 mm 2 mps 768 mmHg 72%
    13:00 +17°C° 0 mm 2 mps 768 mmHg 72%
    14:00 +17°C° 0 mm 2 mps 768 mmHg 72%
    15:00 +17°C° 0 mm 2 mps 768 mmHg 72%
    16:00 +16°C° 0 mm 2 mps 768 mmHg 77%
    17:00 +14°C° 0 mm 2 mps 768 mmHg 82%
    18:00 +13°C° 0 mm 2 mps 768 mmHg 87%
    19:00 +13°C° 0 mm 2 mps 769 mmHg 88%
    20:00 +12°C° 0 mm 2 mps 769 mmHg 88%
    21:00 +12°C° 0 mm 2 mps 770 mmHg 89%
    22:00 +10°C° 0 mm 2 mps 770 mmHg 89%
    23:00 +10°C° 0 mm 2 mps 770 mmHg 88%

    Day after tomorrow, 20 October, Saturday

    Time Temperature Precipitation Wind Pressure Humidity
    00:00 +10°C° 0 mm 2 mps 770 mmHg 88%
    01:00 +10°C° 0 mm 2 mps 770 mmHg 88%
    02:00 +10°C° 0 mm 2 mps 770 mmHg 88%
    03:00 +10°C° 0 mm 2 mps 771 mmHg 88%
    04:00 +10°C° 0 mm 2 mps 771 mmHg 89%
    05:00 +10°C° 0 mm 2 mps 771 mmHg 89%
    06:00 +9°C° 0 mm 2 mps 771 mmHg 90%
    07:00 +12°C° 0 mm 2 mps 771 mmHg 87%
    08:00 +13°C° 0 mm 2 mps 772 mmHg 85%
    09:00 +14°C° 0 mm 2 mps 772 mmHg 83%
    10:00 +14°C° 0 mm 3 mps 772 mmHg 79%
    11:00 +16°C° 0 mm 3 mps 772 mmHg 75%
    12:00 +17°C° 0 mm 3 mps 772 mmHg 71%
    13:00 +18°C° 0 mm 3 mps 772 mmHg 71%
    14:00 +18°C° 0 mm 2 mps 772 mmHg 71%
    15:00 +18°C° 0 mm 2 mps 772 mmHg 71%
    16:00 +16°C° 0 mm 2 mps 772 mmHg 77%
    17:00 +15°C° 0 mm 2 mps 772 mmHg 83%
    18:00 +13°C° 0 mm 2 mps 772 mmHg 89%
    19:00 +13°C° 0 mm 2 mps 772 mmHg 89%
    20:00 +12°C° 0 mm 2 mps 772 mmHg 89%
    21:00 +12°C° 0 mm 2 mps 772 mmHg 89%
    22:00 +12°C° 0 mm 2 mps 772 mmHg 89%
    23:00 +12°C° 0 mm 2 mps 771 mmHg 89%

    21 October, Sunday

    Time Temperature Precipitation Wind Pressure Humidity
    00:00 +11°C° 0 mm 3 mps 771 mmHg 89%
    01:00 +10°C° 0 mm 2 mps 771 mmHg 88%
    02:00 +10°C° 0 mm 2 mps 771 mmHg 88%
    03:00 +10°C° 0 mm 2 mps 771 mmHg 88%
    04:00 +10°C° 0 mm 2 mps 770 mmHg 88%
    05:00 +10°C° 0 mm 2 mps 770 mmHg 88%
    06:00 +10°C° 0 mm 2 mps 770 mmHg 88%
    07:00 +12°C° 0 mm 2 mps 771 mmHg 85%
    08:00 +13°C° 0 mm 2 mps 771 mmHg 82%
    09:00 +14°C° 0 mm 2 mps 771 mmHg 79%
    10:00 +15°C° 0 mm 2 mps 771 mmHg 74%
    11:00 +18°C° 0 mm 1 mps 771 mmHg 69%
    12:00 +19°C° 0 mm 1 mps 771 mmHg 64%
    13:00 +19°C° 0 mm 1 mps 770 mmHg 65%
    14:00 +18°C° 0 mm 2 mps 770 mmHg 66%
    15:00 +18°C° 0 mm 2 mps 770 mmHg 67%
    16:00 +17°C° 0 mm 2 mps 770 mmHg 74%
    17:00 +14°C° 0 mm 3 mps 770 mmHg 82%
    18:00 +12°C° 0 mm 4 mps 771 mmHg 89%
    19:00 +13°C° 0 mm 4 mps 771 mmHg 90%
    20:00 +13°C° 0 mm 5 mps 772 mmHg 91%
    21:00 +14°C° 0 mm 6 mps 772 mmHg 92%
    22:00 +14°C° 0 mm 6 mps 772 mmHg 91%
    23:00 +14°C° 0 mm 7 mps 773 mmHg 89%

    22 October, Monday

    Time Temperature Precipitation Wind Pressure Humidity
    00:00 +12°C° 0 mm 7 mps 773 mmHg 88%
    01:00 +12°C° 0 mm 8 mps 773 mmHg 85%
    02:00 +11°C° 0 mm 8 mps 774 mmHg 82%
    03:00 +10°C° 0 mm 9 mps 774 mmHg 79%
    04:00 +8°C° 0 mm 9 mps 774 mmHg 80%
    05:00 +8°C° 0 mm 9 mps 775 mmHg 82%
    06:00 +7°C° 0 mm 9 mps 775 mmHg 83%
    07:00 +7°C° 0 mm 9 mps 776 mmHg 81%
    08:00 +8°C° 0 mm 9 mps 776 mmHg 78%
    09:00 +8°C° 0 mm 9 mps 776 mmHg 75%
    10:00 +10°C° 0 mm 9 mps 777 mmHg 71%
    11:00 +10°C° 0 mm 8 mps 777 mmHg 66%
    12:00 +11°C° 0 mm 8 mps 777 mmHg 61%
    13:00 +11°C° 0 mm 8 mps 777 mmHg 62%
    14:00 +11°C° 0 mm 7 mps 777 mmHg 63%
    15:00 +11°C° 0 mm 7 mps 777 mmHg 64%
    16:00 +10°C° 0 mm 7 mps 777 mmHg 68%
    17:00 +9°C° 0 mm 7 mps 778 mmHg 73%
    18:00 +8°C° 0 mm 6 mps 778 mmHg 77%
    19:00 +8°C° 0 mm 6 mps 778 mmHg 80%
    20:00 +7°C° 0 mm 6 mps 778 mmHg 83%
    21:00 +7°C° 0 mm 6 mps 778 mmHg 85%
    22:00 +7°C° 0 mm 6 mps 778 mmHg 86%
    23:00 +7°C° 0 mm 6 mps 778 mmHg 87%

    23 October, Tuesday

    Time Temperature Precipitation Wind Pressure Humidity
    00:00 +7°C° 0 mm 6 mps 778 mmHg 88%
    01:00 +7°C° 0 mm 6 mps 778 mmHg 88%
    02:00 +7°C° 0 mm 6 mps 778 mmHg 89%
    03:00 +7°C° 0 mm 6 mps 777 mmHg 90%
    04:00 +7°C° 0 mm 6 mps 777 mmHg 90%
    05:00 +7°C° 0 mm 5 mps 777 mmHg 91%
    06:00 +7°C° 0 mm 5 mps 777 mmHg 91%
    07:00 +8°C° 0 mm 6 mps 777 mmHg 89%
    08:00 +9°C° 0 mm 6 mps 776 mmHg 87%
    09:00 +10°C° 0 mm 6 mps 776 mmHg 84%
    10:00 +11°C° 0 mm 6 mps 776 mmHg 82%
    11:00 +13°C° 0 mm 6 mps 776 mmHg 79%
    12:00 +14°C° 0 mm 5 mps 776 mmHg 76%
    13:00 +14°C° 0 mm 5 mps 775 mmHg 76%
    14:00 +14°C° 0 mm 5 mps 775 mmHg 77%
    15:00 +14°C° 0 mm 5 mps 774 mmHg 77%
    16:00 +12°C° 0 mm 5 mps 774 mmHg 82%
    17:00 +10°C° 0 mm 5 mps 774 mmHg 86%
    18:00 +9°C° 0 mm 5 mps 774 mmHg 91%
    19:00 +9°C° 0 mm 5 mps 774 mmHg 92%
    20:00 +8°C° 0 mm 6 mps 774 mmHg 92%
    21:00 +8°C° 0 mm 6 mps 774 mmHg 92%
    22:00 +8°C° 0 mm 6 mps 774 mmHg 92%
    23:00 +7°C° 0 mm 6 mps 774 mmHg 92%
    Show more